Weather History for Buffalo, WY

Change the Weather History Date:

Wednesday, February 13, 2013

  Actual Average Record
Temperature  
Mean Temperature 34 °F 28 °F  
Max Temperature 45 °F 38 °F 55 °F (2005)
Min Temperature 23 °F 18 °F -1 °F (2007)
Degree Days  
Heating Degree Days 31 37  
Month to date heating degree days 474 492  
Since 1 July heating degree days 4352 4699  
Cooling Degree Days 0 0  
Month to date cooling degree days 0 0  
Year to date cooling degree days 0 0  
Moisture  
Dew Point 24 °F    
Average Humidity 64    
Maximum Humidity 92    
Minimum Humidity 36    
Precipitation  
Precipitation 0.01 in 0.01 in 0.01 in (2003)
Month to date precipitation 0.05 0.16  
Year to date precipitation 0.53 0.58  
Sea Level Pressure  
Sea Level Pressure 29.93 in    
Wind  
Wind Speed 13 mph (NNW)    
Max Wind Speed 33 mph    
Max Gust Speed 45 mph    
Visibility 5 miles    
Events Fog , Snow    
T = Trace of Precipitation, MM = Missing Value Source: NWS Daily Summary

Daily Weather History Graph

Daily Weather History Graph

Search for Another Location

Airport:

Trip Planner

Search our weather history database for the weather conditions in past years. The results will help you decide how hot, cold, wet, or windy it might be!

Date:

Astronomy

Feb. 13, 2013 Rise Set
Actual Time 7:09 AM MST 5:33 PM MST
Civil Twilight 6:39 AM MST 6:03 PM MST
Nautical Twilight 6:05 AM MST 6:37 PM MST
Astronomical Twilight 5:31 AM MST 7:11 PM MST
Moon 8:29 AM MST (2/13) 9:51 PM MST (2/13)
Length of Visible Light 11h 24m
Length of Day
10h 24m
Waxing Crescent, 14% of the Moon is Illuminated
Feb 13
Waxing Crescent
Feb 17
First Quarter
Feb 25
Full
Mar 4
Last Quarter
Mar 11
New

Hourly Weather History & Observations

Time (MST) Temp. Windchill Dew Point Humidity Pressure Visibility Wind Dir Wind Speed Gust Speed Precip Events Conditions
12:53 AM 28.9 °F 23.9 °F 14.0 °F 54% 29.91 in 10.0 mi West 4.6 mph - N/A   Clear
1:53 AM 23.0 °F 18.4 °F 12.9 °F 65% 29.91 in 10.0 mi SW 3.5 mph - N/A   Clear
2:53 AM 26.1 °F 20.5 °F 12.9 °F 58% 29.90 in 10.0 mi NNW 4.6 mph - N/A   Clear
3:53 AM 28.9 °F 20.4 °F 14.0 °F 54% 29.87 in 10.0 mi WSW 9.2 mph - N/A   Clear
4:53 AM 30.9 °F 26.2 °F 12.9 °F 47% 29.87 in 10.0 mi North 4.6 mph - N/A   Scattered Clouds
5:53 AM 30.0 °F 26.5 °F 14.0 °F 51% 29.89 in 10.0 mi Variable 3.5 mph - N/A   Mostly Cloudy
6:53 AM 36.0 °F 28.5 °F 16.0 °F 44% 29.86 in 10.0 mi NNW 10.4 mph - N/A   Clear
7:53 AM 35.1 °F 27.9 °F 15.1 °F 44% 29.88 in 10.0 mi NNW 9.2 mph - N/A   Clear
8:53 AM 41.0 °F 33.9 °F 17.1 °F 38% 29.84 in 10.0 mi NNW 12.7 mph 27.6 mph N/A   Partly Cloudy
9:34 AM 39.2 °F 31.6 °F 19.4 °F 45% 29.83 in 10.0 mi North 12.7 mph 41.4 mph N/A   Squalls
9:53 AM 42.1 °F 33.9 °F 18.0 °F 38% 29.86 in 10.0 mi NNW 17.3 mph 36.8 mph N/A   Scattered Clouds
10:53 AM 43.0 °F 33.8 °F 18.0 °F 37% 29.86 in 10.0 mi NNW 23.0 mph 33.4 mph N/A   Clear
11:53 AM 43.0 °F 35.7 °F 19.9 °F 40% 29.86 in 10.0 mi NNW 15.0 mph 33.4 mph N/A   Overcast
12:53 PM 39.0 °F 28.5 °F 21.9 °F 50% 29.86 in 10.0 mi North 23.0 mph 38.0 mph N/A   Overcast
1:53 PM 36.0 °F 25.3 °F 28.0 °F 73% 29.92 in 10.0 mi North 19.6 mph 25.3 mph N/A   Mostly Cloudy
2:12 PM 33.8 °F 22.2 °F 28.4 °F 81% 29.88 in 10.0 mi North 20.7 mph 35.7 mph N/A   Mostly Cloudy
2:26 PM 33.8 °F 22.2 °F 28.4 °F 81% 29.86 in 10.0 mi North 20.7 mph 34.5 mph N/A   Mostly Cloudy
2:28 PM 33.8 °F 20.5 °F 28.4 °F 81% 29.86 in 8.0 mi North 27.6 mph 35.7 mph N/A   Mostly Cloudy
2:36 PM 33.8 °F 21.3 °F 28.4 °F 81% 29.87 in 2.5 mi North 24.2 mph 35.7 mph 0.00 in Snow Light Snow
2:44 PM 32.0 °F 17.9 °F 28.4 °F 87% 29.88 in 1.0 mi North 28.8 mph 35.7 mph 0.00 in Snow Light Snow
2:53 PM 32.0 °F 18.4 °F 28.9 °F 88% 29.97 in 1.2 mi North 26.5 mph 35.7 mph 0.00 in Snow Light Snow
3:02 PM 30.2 °F 17.8 °F 28.4 °F 93% 29.90 in 0.8 mi North 19.6 mph 35.7 mph 0.00 in Snow Light Snow
3:11 PM 30.2 °F 16.8 °F 28.4 °F 93% 29.91 in 0.5 mi North 23.0 mph 32.2 mph 0.00 in Fog , Snow Snow
3:27 PM 30.2 °F 16.5 °F 28.4 °F 93% 29.92 in 0.2 mi North 24.2 mph 34.5 mph 0.00 in Fog , Snow Snow
3:42 PM 30.2 °F 16.8 °F 28.4 °F 93% 29.92 in 0.5 mi North 23.0 mph 39.1 mph 0.00 in Fog , Snow Snow
3:53 PM 30.0 °F 17.5 °F 28.0 °F 92% 30.00 in 0.2 mi NNW 19.6 mph 31.1 mph 0.01 in Fog , Snow Heavy Snow
4:49 PM 30.2 °F 17.1 °F 26.6 °F 86% 29.94 in 0.5 mi NW 21.9 mph 27.6 mph 0.00 in Fog , Snow Snow
4:53 PM 30.0 °F 16.9 °F 27.0 °F 88% 30.01 in 0.5 mi NW 21.9 mph 28.8 mph 0.00 in Fog , Snow Snow
5:03 PM 30.2 °F 16.8 °F 26.6 °F 86% 29.93 in 1.0 mi NW 23.0 mph 29.9 mph 0.00 in Snow Light Snow
5:11 PM 30.2 °F 17.8 °F 26.6 °F 86% 29.94 in 1.2 mi NNW 19.6 mph 32.2 mph 0.00 in Snow Light Snow
5:21 PM 30.2 °F 16.8 °F 26.6 °F 86% 29.93 in 2.0 mi NW 23.0 mph 28.8 mph 0.00 in Snow Light Snow
5:34 PM 30.2 °F 17.1 °F 26.6 °F 86% 29.94 in 1.0 mi NNW 21.9 mph 35.7 mph 0.00 in Snow Light Snow
5:37 PM 30.2 °F 17.1 °F 26.6 °F 86% 29.94 in 0.8 mi NNW 21.9 mph 35.7 mph 0.00 in Snow Light Snow
5:47 PM 30.2 °F 17.1 °F 26.6 °F 86% 29.94 in 1.2 mi NW 21.9 mph 27.6 mph 0.00 in Snow Light Snow
5:51 PM 30.2 °F 17.8 °F 26.6 °F 86% 29.94 in 3.0 mi NW 19.6 mph 28.8 mph 0.00 in Snow Light Snow
5:53 PM 30.9 °F 19.1 °F 26.1 °F 82% 30.01 in 5.0 mi NNW 18.4 mph 28.8 mph 0.00 in Snow Light Snow
6:01 PM 30.2 °F 17.8 °F 26.6 °F 86% 29.94 in 9.0 mi NNW 19.6 mph 27.6 mph 0.00 in   Overcast
6:49 PM 30.2 °F 16.5 °F 26.6 °F 86% 29.96 in 3.0 mi North 24.2 mph 35.7 mph 0.00 in Snow Light Snow
6:53 PM 30.0 °F 17.2 °F 27.0 °F 88% 30.01 in 1.5 mi North 20.7 mph 35.7 mph 0.00 in Snow Light Snow
6:57 PM 30.2 °F 17.1 °F 26.6 °F 86% 29.96 in 1.0 mi North 21.9 mph 35.7 mph 0.00 in Snow Light Snow
7:10 PM 28.4 °F 14.7 °F 26.6 °F 93% 29.96 in 0.8 mi North 21.9 mph 33.4 mph 0.00 in Snow Light Snow
7:20 PM 28.4 °F 15.4 °F 26.6 °F 93% 29.97 in 1.2 mi NNW 19.6 mph 26.5 mph 0.00 in Snow Light Snow
7:46 PM 28.4 °F 15.8 °F 26.6 °F 93% 29.97 in 3.0 mi NNW 18.4 mph 26.5 mph 0.00 in Snow Light Snow
7:53 PM 28.9 °F 16.9 °F 26.1 °F 89% 30.04 in 3.0 mi NW 17.3 mph 26.5 mph 0.00 in Snow Light Snow
7:58 PM 28.4 °F 16.2 °F 26.6 °F 93% 29.98 in 1.8 mi NNW 17.3 mph 26.5 mph 0.00 in Snow Light Snow
8:28 PM 28.4 °F 18.0 °F 26.6 °F 93% 29.98 in 1.5 mi NNW 12.7 mph 24.2 mph 0.00 in Snow Light Snow
8:53 PM 28.9 °F 16.9 °F 26.1 °F 89% 30.02 in 1.8 mi NNW 17.3 mph 26.5 mph 0.00 in Snow Light Snow
9:03 PM 28.4 °F 17.5 °F 26.6 °F 93% 29.98 in 2.0 mi NNW 13.8 mph 24.2 mph 0.00 in Snow Light Snow
9:11 PM 28.4 °F 18.5 °F 26.6 °F 93% 29.98 in 2.5 mi NNW 11.5 mph 21.9 mph 0.00 in Snow Light Snow
9:51 PM 28.4 °F 19.1 °F 24.8 °F 86% 29.99 in 5.0 mi NNW 10.4 mph - 0.00 in Snow Light Snow
9:53 PM 28.0 °F 18.6 °F 25.0 °F 88% 30.03 in 5.0 mi NNW 10.4 mph - 0.00 in Snow Light Snow
10:53 PM 27.0 °F - 25.0 °F 92% 30.03 in 10.0 mi Calm Calm - 0.00 in   Overcast
11:53 PM 26.1 °F 21.9 °F 23.0 °F 88% 30.04 in 9.0 mi West 3.5 mph - N/A   Overcast